Wind_Speed
12 11 9 7 4 5 7 7 7 8 9 10 12 13 13 14 15 17 18 20 19 19 19 18 16 15 14 13 13 13 13 13 13 13 13 13 13 13 12 11 11 10 10 9 8 7 6 4 3
12 13 12 10 6 5 6 8 8 8 8 9 10 10 11 12 12 13 15 17 18 18 18 17 16 15 14 13 12 12 11 11 11 11 11 11 11 11 11 11 10 9 8 8 8 6 5 4 4
11 13 14 13 11 9 7 8 8 9 9 9 9 9 10 10 10 11 12 14 15 16 15 15 14 13 12 11 10 10 9 9 9 9 9 9 10 10 10 10 9 7 6 6 7 6 6 5 5
10 11 13 14 14 12 9 8 8 9 11 11 10 10 10 10 9 9 9 11 12 12 11 11 11 11 10 9 9 8 8 8 8 8 8 8 8 8 8 8 7 6 5 4 5 5 6 6 6
11 10 11 13 14 13 11 10 8 9 11 12 13 13 12 11 9 7 6 6 8 7 6 6 7 7 8 8 8 8 7 7 6 6 6 6 6 6 6 6 6 5 4 3 4 4 5 5 7
13 12 11 12 14 13 12 11 9 9 11 13 14 15 14 12 10 7 5 4 4 4 3 3 4 5 5 6 7 7 7 7 6 5 5 5 5 6 6 6 5 4 4 3 4 4 5 6 7
15 15 14 14 13 12 12 11 10 9 10 12 14 15 15 13 11 9 7 5 4 3 1 1 3 4 5 6 7 7 8 9 9 8 8 8 8 8 7 7 7 6 6 5 5 6 6 7 7
19 18 17 17 15 14 12 12 10 10 10 11 13 13 15 14 13 11 9 7 6 4 3 3 4 5 6 7 7 8 9 10 10 11 11 11 11 10 10 9 8 8 8 8 7 7 7 8 8
22 22 21 21 19 17 15 14 13 11 11 11 12 13 14 14 14 12 11 9 8 6 5 4 6 7 8 8 9 9 9 10 11 11 12 13 14 13 12 11 10 9 9 9 9 9 9 9 9
25 24 26 25 21 19 17 17 16 14 13 12 12 14 15 15 15 14 13 12 11 9 8 7 8 10 11 11 10 10 10 11 11 12 12 13 14 14 13 12 12 11 10 10 10 10 10 11 11
28 27 27 25 24 22 21 20 20 19 17 15 14 14 15 16 17 17 16 15 14 13 13 12 12 13 14 14 13 12 11 11 12 12 13 13 14 14 14 14 14 13 12 12 12 12 12 13 13
31 30 29 27 26 25 25 24 24 23 22 20 17 16 17 17 18 18 18 19 18 18 18 18 18 17 17 16 15 14 14 14 14 14 13 14 15 15 16 17 17 16 16 15 14 14 14 15 15
35 33 32 30 29 28 27 27 27 27 25 23 21 20 18 18 18 19 19 20 21 21 21 20 20 20 19 19 18 17 17 17 16 16 15 15 16 18 19 20 20 20 19 18 16 16 16 16 16
38 37 36 34 32 31 31 30 29 29 27 26 25 23 22 21 21 20 20 21 22 22 22 22 22 22 22 22 22 21 21 20 20 19 18 17 18 20 21 21 21 22 21 20 18 17 17 17 17
37 37 38 37 36 35 33 33 33 32 31 30 28 27 26 25 24 23 23 23 24 24 24 24 24 25 25 25 25 25 25 25 24 23 22 21 21 21 22 22 23 23 22 21 19 19 19 18 18
34 36 37 40 39 38 36 35 37 36 35 34 33 32 30 29 28 28 27 27 27 27 27 27 27 28 29 29 30 30 30 29 29 29 27 25 24 24 24 23 24 25 24 24 22 21 20 19 19
31 33 36 40 40 40 39 36 39 39 38 37 36 35 34 33 32 32 31 31 31 31 30 30 30 31 33 34 34 34 34 35 35 34 32 30 27 26 26 26 26 26 27 26 25 24 23 22 21
30 31 34 37 40 41 41 41 42 41 41 41 40 38 36 35 34 34 34 34 35 34 33 33 34 35 36 37 36 37 38 40 40 39 37 34 31 30 30 28 28 27 28 27 27 27 26 25 24
30 31 33 35 39 39 41 42 43 43 43 43 42 41 39 38 37 37 38 37 37 37 36 36 37 38 38 39 40 41 42 44 44 43 41 38 35 33 31 30 30 30 30 29 29 29 28 27 26
29 30 32 35 36 36 39 42 43 43 43 44 44 43 42 41 41 41 40 38 37 36 36 37 38 39 40 42 44 44 44 45 43 43 42 39 36 34 32 31 31 31 32 32 31 30 29 28 27
28 29 31 33 34 34 36 38 40 41 42 43 43 43 43 42 41 39 38 36 36 36 36 38 39 42 43 45 46 46 46 47 48 45 44 41 38 36 34 34 33 33 33 33 33 31 29 28 28
29 31 31 32 32 32 35 35 36 39 39 40 40 40 40 39 38 37 36 35 36 37 38 40 42 43 45 46 47 47 47 48 48 47 44 43 43 40 37 35 34 33 34 33 33 31 30 29 29
33 33 32 33 34 34 36 36 32 39 39 39 38 37 37 37 37 37 37 37 38 40 41 42 44 45 46 48 49 49 49 50 50 50 48 46 43 41 38 37 35 33 33 33 31 30 30 30 29
34 34 35 36 37 39 37 38 37 39 41 39 38 37 37 37 37 38 39 40 41 42 43 45 46 47 48 49 50 50 51 51 51 50 48 45 41 38 36 35 34 33 32 32 32 31 30 31 31
34 35 36 39 40 40 37 42 41 45 43 41 40 40 40 40 41 41 42 43 44 45 45 47 48 49 50 50 51 51 51 51 50 49 46 42 37 36 35 34 33 34 32 32 33 33 32 33 33
31 34 37 39 36 33 40 45 45 47 46 45 45 45 45 45 44 44 44 44 45 45 46 47 48 48 49 50 50 50 50 49 48 46 43 39 35 33 33 32 32 32 32 32 33 33 35 36 36
27 29 32 37 38 38 40 44 44 43 45 46 46 46 46 46 46 45 45 45 45 46 46 46 47 46 46 45 45 44 43 43 42 41 39 37 34 31 29 29 29 29 29 30 31 33 34 36 37
28 28 29 32 35 37 38 38 39 36 38 40 41 42 42 42 42 42 42 42 43 44 44 43 42 41 39 38 37 36 36 36 36 35 32 31 30 28 28 28 27 28 28 29 30 32 33 34 34
31 31 31 33 33 33 35 36 35 32 32 34 35 36 37 37 37 36 36 36 37 37 38 37 37 36 35 35 34 33 33 33 32 31 30 29 28 28 28 27 28 28 29 29 30 31 31 32 32
36 35 34 34 34 34 33 35 33 31 31 30 31 31 33 34 35 35 35 34 34 34 35 35 36 36 35 35 34 32 31 30 29 28 28 28 27 27 28 28 29 30 30 30 31 31 31 31 31
Wind_Direction
205 209 210 206 183 146 152 165 169 153 133 123 117 112 108 106 103 99 93 88 84 83 85 86 86 86 87 88 89 89 90 89 88 86 82 77 71 68 68 68 64 59 54 48 45 45 49 55 52
212 216 218 216 208 201 175 171 177 179 159 143 133 126 118 114 110 100 96 89 82 79 80 81 80 80 79 80 81 81 82 82 82 82 80 75 69 64 63 64 63 59 53 47 41 33 25 18 15
216 220 224 223 219 217 205 185 183 188 179 166 156 148 140 129 117 106 100 94 86 79 75 73 72 71 70 69 68 69 70 71 72 71 69 65 61 58 57 58 60 58 53 45 37 29 16 360 348
222 225 225 227 227 226 224 206 189 188 187 182 177 174 166 152 133 117 107 101 94 83 70 63 60 57 55 54 53 51 52 54 56 56 55 52 50 51 50 50 52 49 43 35 25 16 8 356 342
227 229 229 232 235 230 229 221 204 194 192 191 189 188 183 174 156 141 128 116 104 87 64 49 46 41 35 33 31 28 26 29 33 36 36 34 30 29 29 30 33 35 29 18 5 355 350 346 342
232 233 233 232 239 235 231 225 216 205 201 197 195 194 190 186 177 169 166 157 133 107 70 35 24 17 10 7 7 4 358 353 350 351 353 356 355 352 352 352 352 353 355 350 339 332 331 332 333
235 235 236 235 238 237 233 227 221 214 213 206 199 198 195 194 189 189 193 187 173 164 174 328 342 346 344 344 345 344 340 334 326 318 315 316 319 321 322 321 319 319 318 320 322 321 322 324 327
235 235 238 240 239 238 233 228 222 217 220 218 208 201 198 197 197 200 204 203 198 203 228 270 304 314 319 324 327 329 329 327 321 312 304 300 299 302 304 304 302 301 304 310 313 313 312 314 318
234 232 234 236 237 236 232 229 224 221 220 221 218 210 206 206 205 208 213 215 218 226 243 274 296 303 305 306 310 316 320 322 321 315 307 301 296 295 296 296 294 293 295 302 307 305 301 303 308
232 230 232 237 238 237 233 229 227 228 231 233 231 223 218 219 217 221 224 228 235 243 257 276 291 297 300 298 298 304 311 316 317 314 311 307 302 296 295 295 292 287 287 290 293 296 296 296 297
229 231 235 236 237 235 234 231 230 232 237 240 239 235 232 233 236 240 241 246 255 260 265 275 286 295 299 297 294 296 302 309 312 311 309 306 303 298 295 295 293 288 284 285 287 289 292 292 291
228 231 234 235 236 235 234 233 232 234 238 243 246 245 244 244 249 252 255 259 264 268 272 277 285 292 297 297 294 295 299 303 306 306 305 304 300 296 294 295 294 292 288 284 283 285 287 287 287
231 231 234 234 235 235 235 235 235 236 239 242 244 247 250 254 259 261 262 263 265 268 272 278 284 289 292 292 292 292 298 300 301 301 300 298 296 293 292 293 293 292 290 288 285 285 287 286 287
233 234 235 235 234 234 235 237 238 239 240 242 243 245 249 256 260 262 262 262 265 269 273 275 279 283 284 285 285 286 290 293 296 297 296 292 292 292 291 291 290 288 287 286 286 288 289 288 288
233 234 236 236 235 235 235 237 238 240 241 242 243 245 247 252 255 257 259 262 264 268 270 272 275 277 278 279 279 280 282 286 289 290 290 289 289 290 286 285 285 284 284 282 283 286 287 286 286
232 233 235 237 236 236 236 237 240 241 241 242 244 246 248 249 251 255 258 260 262 264 265 268 270 272 273 274 275 277 280 282 284 284 284 284 284 284 283 281 280 281 281 280 280 281 283 284 284
230 231 233 237 237 237 236 235 239 241 242 244 245 246 248 250 251 253 256 258 259 260 262 264 266 267 269 272 274 277 279 280 280 280 281 281 281 281 280 280 279 279 279 278 278 279 281 282 283
227 230 232 237 238 238 239 238 241 243 244 246 248 249 250 251 254 255 256 256 257 259 260 262 262 264 266 270 273 275 276 277 277 278 278 277 276 277 277 278 279 280 279 278 277 277 278 281 284
227 227 231 235 239 239 242 243 243 244 246 248 250 252 254 255 257 259 260 260 260 260 260 259 259 261 264 267 270 272 274 276 277 277 276 275 274 273 273 275 277 279 280 279 279 276 275 278 282
229 229 232 237 240 240 243 246 247 248 248 250 252 254 256 258 260 262 263 264 262 260 259 258 259 260 262 265 268 271 274 277 279 280 279 275 273 271 269 272 276 278 280 281 280 277 274 276 280
233 232 233 237 241 242 245 248 251 251 251 252 253 254 255 257 259 260 260 260 259 258 258 259 260 261 263 265 267 269 271 275 278 280 282 279 276 273 271 273 274 276 278 280 278 275 272 273 277
237 236 236 238 240 243 245 246 251 250 250 252 252 253 253 254 255 256 256 255 255 255 256 258 259 261 263 264 265 267 270 273 275 279 281 280 278 273 270 272 272 274 277 277 275 272 271 273 274
241 242 241 241 241 240 244 245 245 252 250 251 251 251 251 251 251 252 252 253 253 254 255 257 258 259 261 263 264 266 268 271 273 276 279 280 279 274 268 267 268 271 273 273 271 268 269 271 272
247 248 248 248 247 246 245 247 245 251 251 252 253 252 251 250 250 251 253 255 255 254 255 256 257 258 260 262 264 267 269 271 273 276 278 280 277 271 265 262 262 266 268 267 268 268 268 270 272
251 251 252 252 251 254 252 250 250 251 253 253 253 253 252 251 252 253 255 256 256 255 255 255 256 259 261 264 266 269 271 272 273 275 278 278 274 267 264 262 261 265 265 264 267 268 267 269 271
255 253 252 253 253 253 254 255 253 255 256 255 254 254 255 255 256 257 258 258 257 256 255 256 258 260 263 266 269 271 272 272 273 273 274 275 272 267 265 262 261 262 263 264 264 265 267 269 272
258 255 253 253 252 251 252 259 257 256 256 256 255 255 255 256 256 257 258 259 258 258 258 259 261 263 265 268 270 271 272 272 270 269 269 268 267 265 263 263 261 262 264 265 264 266 268 269 272
258 256 254 252 254 254 254 255 259 255 252 252 252 253 253 254 255 256 257 257 257 258 259 260 262 264 266 269 270 271 272 271 268 264 262 262 262 263 262 265 266 268 268 268 268 268 269 271 273
257 254 253 253 253 254 254 254 256 256 253 250 249 249 250 251 252 253 254 254 255 255 256 258 260 262 265 269 271 271 272 270 266 263 261 260 260 261 262 265 268 269 270 270 270 271 271 272 273
254 252 253 255 254 254 255 256 255 257 255 251 248 247 247 248 249 250 251 253 253 255 256 257 260 262 265 268 270 269 269 267 264 261 259 258 260 263 265 268 270 270 271 270 270 271 271 272 273
Height
5917 5918 5920 5923 5926 5929 5929 5929 5930 5930 5930 5930 5930 5930 5931 5931 5932 5934 5931 5929 5929 5928 5928 5929 5929 5930 5930 5929 5929 5928 5927 5926 5925 5924 5923 5923 5922 5922 5921 5919 5918 5917 5916 5915 5914 5913 5912 5911 5910
5917 5918 5920 5922 5925 5928 5930 5930 5930 5931 5931 5931 5931 5932 5932 5932 5933 5933 5932 5931 5931 5931 5931 5931 5931 5931 5931 5931 5930 5930 5929 5928 5927 5926 5925 5924 5923 5923 5922 5921 5919 5918 5917 5916 5916 5915 5914 5912 5911
5916 5917 5920 5922 5924 5927 5928 5930 5930 5930 5931 5931 5932 5933 5933 5934 5934 5934 5934 5933 5933 5933 5933 5933 5933 5933 5933 5932 5932 5931 5930 5929 5928 5927 5926 5925 5924 5923 5922 5921 5920 5919 5918 5917 5916 5915 5914 5913 5912
5916 5917 5919 5922 5923 5925 5927 5928 5929 5930 5931 5931 5932 5933 5934 5934 5934 5935 5934 5934 5934 5935 5935 5935 5934 5934 5934 5933 5932 5932 5931 5930 5929 5928 5927 5926 5925 5924 5923 5922 5921 5920 5919 5918 5917 5916 5914 5913 5912
5915 5917 5919 5920 5921 5923 5925 5926 5928 5929 5930 5931 5932 5932 5933 5934 5934 5934 5935 5935 5935 5935 5935 5936 5935 5935 5935 5934 5933 5933 5932 5931 5930 5929 5928 5927 5926 5925 5923 5922 5921 5920 5919 5918 5917 5916 5915 5914 5912
5914 5916 5918 5919 5920 5922 5923 5924 5926 5928 5929 5930 5931 5932 5932 5933 5933 5934 5934 5934 5934 5935 5935 5935 5935 5935 5935 5934 5933 5933 5932 5931 5930 5929 5928 5927 5926 5925 5924 5922 5921 5920 5918 5917 5916 5916 5915 5914 5913
5913 5914 5916 5917 5919 5921 5922 5923 5925 5926 5928 5929 5930 5931 5931 5931 5932 5933 5933 5933 5933 5934 5934 5934 5934 5934 5934 5933 5933 5932 5931 5931 5930 5929 5928 5927 5925 5924 5923 5922 5921 5919 5918 5917 5916 5915 5914 5914 5913
5910 5912 5913 5915 5917 5919 5920 5921 5923 5925 5926 5928 5928 5929 5930 5930 5931 5931 5932 5932 5932 5933 5933 5933 5933 5933 5933 5932 5931 5931 5930 5929 5928 5927 5926 5925 5924 5923 5922 5921 5920 5918 5917 5916 5915 5914 5913 5913 5912
5906 5910 5910 5912 5914 5916 5919 5920 5922 5923 5924 5926 5927 5927 5928 5928 5929 5929 5930 5930 5931 5931 5931 5932 5932 5931 5931 5930 5930 5929 5928 5927 5927 5926 5925 5924 5922 5921 5920 5919 5918 5917 5916 5915 5914 5913 5912 5911 5910
5903 5906 5907 5908 5911 5914 5916 5918 5920 5921 5923 5924 5925 5925 5926 5926 5927 5928 5928 5929 5929 5929 5929 5929 5929 5929 5929 5928 5927 5927 5926 5926 5925 5924 5923 5922 5921 5920 5919 5918 5916 5915 5915 5914 5913 5912 5911 5909 5908
5898 5901 5903 5905 5908 5911 5913 5916 5918 5919 5921 5922 5923 5924 5924 5924 5925 5926 5926 5927 5927 5927 5927 5927 5927 5927 5926 5925 5925 5924 5924 5923 5922 5922 5921 5920 5919 5918 5917 5916 5915 5914 5913 5912 5911 5910 5909 5908 5906
5894 5896 5899 5902 5904 5907 5909 5912 5915 5917 5918 5920 5921 5922 5922 5922 5923 5923 5924 5925 5925 5925 5924 5924 5924 5924 5923 5923 5922 5922 5921 5920 5920 5919 5918 5918 5917 5915 5914 5914 5913 5911 5910 5909 5908 5907 5906 5905 5904
5889 5891 5894 5897 5900 5903 5905 5908 5910 5912 5915 5917 5918 5919 5920 5920 5920 5921 5921 5921 5921 5921 5921 5921 5921 5921 5920 5920 5919 5919 5918 5917 5917 5916 5915 5915 5914 5913 5911 5911 5910 5909 5908 5906 5905 5905 5904 5903 5901
5884 5886 5889 5892 5895 5898 5901 5903 5906 5908 5911 5913 5914 5916 5917 5917 5917 5917 5917 5917 5917 5917 5918 5918 5918 5918 5917 5917 5916 5915 5915 5914 5913 5913 5912 5911 5910 5909 5908 5907 5906 5905 5904 5903 5902 5901 5901 5900 5898
5878 5881 5884 5886 5889 5892 5896 5899 5900 5902 5905 5908 5909 5911 5913 5913 5913 5913 5913 5913 5913 5913 5914 5914 5914 5913 5913 5912 5912 5911 5911 5910 5909 5909 5908 5907 5906 5905 5904 5903 5902 5901 5900 5899 5898 5897 5897 5896 5895
5871 5875 5878 5879 5882 5886 5892 5894 5894 5896 5899 5902 5904 5905 5907 5908 5908 5908 5908 5908 5909 5909 5909 5909 5909 5909 5908 5907 5907 5906 5906 5905 5904 5904 5903 5902 5901 5900 5899 5899 5898 5897 5896 5895 5894 5893 5893 5892 5891
5865 5869 5871 5872 5876 5879 5884 5888 5888 5889 5893 5895 5897 5899 5900 5902 5902 5903 5903 5903 5904 5904 5905 5905 5905 5904 5903 5902 5902 5901 5900 5899 5898 5897 5897 5896 5896 5895 5894 5893 5893 5892 5891 5890 5889 5889 5888 5888 5887
5860 5863 5865 5866 5868 5872 5876 5880 5881 5883 5886 5888 5890 5892 5894 5895 5896 5896 5897 5898 5898 5898 5899 5899 5899 5898 5897 5897 5897 5895 5894 5892 5891 5890 5890 5889 5889 5888 5887 5887 5886 5885 5885 5884 5884 5884 5883 5882 5881
5853 5856 5858 5860 5860 5866 5868 5871 5873 5875 5878 5880 5882 5885 5887 5888 5889 5890 5890 5891 5892 5892 5892 5892 5892 5892 5892 5891 5890 5888 5887 5885 5883 5882 5881 5881 5881 5881 5880 5880 5879 5879 5878 5878 5878 5878 5877 5877 5876
5849 5851 5853 5854 5855 5859 5861 5863 5865 5868 5870 5872 5874 5877 5878 5880 5881 5882 5883 5884 5884 5885 5885 5885 5885 5885 5885 5885 5884 5882 5880 5877 5876 5875 5874 5873 5873 5873 5873 5873 5873 5872 5871 5871 5870 5871 5870 5870 5870
5843 5846 5847 5849 5850 5852 5854 5856 5858 5859 5861 5863 5865 5868 5869 5871 5873 5874 5874 5875 5876 5877 5877 5878 5878 5878 5877 5877 5876 5875 5873 5872 5870 5869 5867 5866 5866 5866 5866 5865 5865 5865 5864 5864 5863 5863 5864 5864 5864
5837 5839 5841 5843 5845 5847 5848 5850 5850 5851 5852 5854 5856 5858 5860 5863 5864 5865 5866 5867 5868 5868 5869 5869 5869 5869 5869 5869 5868 5867 5866 5864 5863 5861 5860 5860 5859 5858 5858 5858 5858 5857 5857 5857 5856 5856 5856 5857 5857
5831 5833 5835 5836 5837 5840 5840 5842 5846 5842 5843 5845 5847 5850 5852 5854 5855 5856 5857 5859 5859 5860 5860 5860 5860 5860 5860 5859 5858 5858 5857 5856 5854 5853 5853 5852 5851 5850 5850 5850 5850 5850 5850 5849 5849 5849 5850 5850 5850
5825 5827 5828 5829 5830 5831 5834 5834 5837 5834 5835 5836 5839 5841 5843 5845 5847 5848 5849 5850 5850 5851 5851 5851 5851 5851 5850 5849 5849 5848 5848 5847 5846 5844 5843 5842 5842 5842 5841 5842 5842 5842 5842 5842 5842 5842 5842 5843 5843
5818 5820 5821 5821 5822 5823 5825 5824 5827 5824 5827 5828 5830 5832 5834 5836 5837 5838 5839 5840 5841 5841 5842 5842 5842 5841 5841 5840 5839 5839 5838 5837 5836 5835 5834 5833 5832 5833 5833 5833 5834 5834 5834 5834 5834 5835 5835 5835 5836
5809 5811 5812 5813 5815 5816 5812 5814 5817 5816 5817 5818 5820 5821 5823 5824 5826 5827 5829 5829 5830 5831 5832 5832 5832 5832 5831 5831 5830 5829 5828 5827 5826 5826 5825 5824 5824 5824 5824 5824 5825 5826 5826 5826 5827 5827 5827 5827 5828
5801 5801 5802 5802 5802 5803 5803 5803 5803 5806 5806 5807 5808 5810 5811 5813 5814 5816 5817 5818 5819 5820 5821 5822 5822 5822 5822 5821 5820 5819 5818 5817 5816 5816 5816 5815 5816 5816 5816 5816 5817 5818 5818 5819 5819 5819 5819 5819 5819
5794 5793 5793 5792 5791 5791 5793 5794 5793 5794 5795 5796 5797 5798 5800 5801 5803 5804 5806 5807 5808 5810 5811 5812 5812 5812 5812 5812 5811 5810 5809 5807 5807 5807 5806 5807 5807 5808 5808 5809 5809 5810 5810 5811 5811 5811 5811 5812 5812
5786 5785 5784 5783 5782 5783 5783 5785 5783 5784 5785 5786 5787 5788 5790 5792 5793 5794 5796 5797 5798 5800 5801 5802 5803 5803 5803 5803 5802 5801 5800 5800 5799 5799 5799 5799 5799 5800 5801 5801 5802 5802 5803 5803 5803 5803 5804 5804 5804
5775 5775 5775 5775 5774 5773 5773 5776 5774 5774 5775 5776 5778 5780 5781 5783 5784 5785 5787 5788 5789 5791 5792 5793 5794 5794 5795 5795 5794 5793 5793 5792 5792 5792 5792 5792 5792 5793 5793 5794 5794 5794 5794 5795 5795 5795 5796 5796 5796